Location: Bennemühlen
(52.5740°N, 9.7135°E)
Time: 06:16:47
(UTC+00:00)

A-11 Canister half - Pass Details

Date: 27 February 2026
Orbit: 1512 x 1687 km, 47.2° (Epoch: 5 March)

Event Time Altitude Azimuth Distance (km) Brightness Sun altitude
Rises 19:03:32 0° 242° (WSW) 4,933 12.4 -20.0°
Reaches altitude 10° 19:06:45 10° 239° (WSW) 3,949 11.7 -20.5°
Maximum altitude 19:16:38 59° 164° (SSE) 1,896 9.2 -21.9°
Enters shadow 19:21:17 34° 102° (ESE) 2,501 9.5 -22.6°
Drops below altitude 10° 19:26:22 10° 88° (E) 3,897 - -23.3°
Sets 19:29:32 0° 85° (E) 4,865 - -23.8°
